Location: Santaluz Observatory
(32.9930°N, 117.1510°W)
Time: 03:28:03
(UTC-07:00)

Daily predictions for brighter satellites

Satellite Brightness Start Highest point End
(mag) Time Altitude Azimuth Time Altitude Azimuth Time Altitude Azimuth
Cosmos 2344 4.0 03:26:43 57° NE 03:26:43 57° NE 03:33:04 10° NNE
Resurs 1-4 Rocket 4.5 03:39:17 10° N 03:40:10 15° N 03:40:10 15° N
Cosmos 2333 Rocket 3.9 03:45:02 10° N 03:49:59 29° ENE 03:54:51 10° ESE
Cosmos 1727 Rocket 4.4 04:03:39 54° SE 04:04:29 59° E 04:10:39 10° NNE
DELTA 2 R/B (1) 4.2 04:11:43 52° E 04:11:43 52° E 04:16:07 10° ENE
Hubble Space Telescope 3.4 04:16:50 14° SE 04:16:50 14° SE 04:17:35 10° ESE
CZ-4B R/B 3.7 04:10:04 10° NNE 04:15:23 55° E 04:16:14 50° SE
FALCON 9 R/B 3.6 04:14:24 34° SSE 04:16:05 39° SE 04:30:16 10° ENE
Cosmos 2237 Rocket 3.4 04:12:01 10° N 04:17:18 40° ENE 04:22:33 10° SE
RESURS DK-1 4.0 04:22:24 32° NE 04:22:24 32° NE 04:24:48 10° NNE
NOSS 3-2 (A) 4.4 04:15:48 10° NNW 04:23:22 62° ENE 04:31:23 10° SE
Meteor 1-13 Rocket 4.2 04:25:11 86° NNW 04:25:11 86° NNW 04:30:51 10° N
ATLAS 5 CENTAUR R/B 3.7 04:20:57 10° NNW 04:26:41 40° NE 04:32:46 10° ESE
USA 238 DEB 4.3 04:30:56 39° S 04:30:56 39° S 04:35:22 10° SSE
USA 238 4.3 04:30:54 41° S 04:30:54 41° S 04:35:28 10° SSE
Cosmos 1980 4.2 04:25:16 10° NNW 04:30:52 59° ENE 04:36:28 10° SSE
Cosmos 1346 Rocket 4.0 04:32:28 40° E 04:32:38 40° E 04:36:22 10° NNE
SL-16 R/B 4.4 04:31:28 10° N 04:36:04 25° ENE 04:40:39 10° ESE
USA 215 3.6 04:34:24 10° SSE 04:39:43 44° SSW 04:39:43 44° SSW
Cosmos 1605 Rocket 3.8 04:37:01 10° NNW 04:43:07 66° W 04:49:17 10° S
ADEOS II 3.0 04:38:33 10° NNE 04:43:37 48° E 04:48:40 10° S
NOSS 0 Rocket 3.8 04:38:27 10° NNW 04:44:43 85° WSW 04:50:56 10° SSE
Cosmos 2227 Rocket 2.4 04:45:19 52° WNW 04:45:19 52° WNW 04:50:37 10° N
Cosmos 1339 Rocket 4.4 04:42:59 38° SSW 04:45:35 74° W 04:51:59 10° N
CZ-4C R/B 3.4 04:48:29 39° SW 04:48:29 39° SW 04:54:44 10° S
Lacrosse 5 2.5 04:48:06 39° NNW 04:48:06 39° NNW 04:52:26 10° NNE
Cosmos 1025 Rocket 3.3 04:50:39 53° NNW 04:50:39 53° NNW 04:54:07 10° N
Cosmos 2297 Rocket 2.1 04:53:33 52° WSW 04:54:36 62° WNW 05:00:13 10° NNE
Okean O Rocket 3.0 04:51:13 10° N 04:53:27 26° NNW 04:53:27 26° NNW
Tiangong 1 3.4 04:57:01 17° N 04:57:01 17° N 04:58:21 10° NE
Cosmos 2219 Rocket 2.2 04:51:34 10° NNW 04:57:04 52° WSW 05:02:33 10° S
CZ-2C R/B 3.9 04:59:34 49° WNW 04:59:34 49° WNW 05:03:18 10° NNW
NOSS 3-2 (C) 4.1 04:53:02 10° NNW 05:00:46 85° ENE 05:08:57 10° SSE
Delta 142 3.9 05:01:30 44° SSW 05:02:01 47° S 05:06:01 10° ESE
Cosmos 2112 Rocket 3.9 04:58:00 10° NNW 05:03:19 87° ENE 05:08:33 10° SSE
CZ-4B R/B 3.6 04:59:14 10° N 05:02:56 42° NW 05:02:56 42° NW
Cosmos 1606 Rocket 3.4 05:01:15 10° N 05:05:38 88° WSW 05:09:56 10° S
ADEOS Rocket 3.1 04:59:35 10° N 05:06:40 73° WNW 05:12:58 10° SSW
Cosmos 1680 Rocket 3.4 05:02:59 10° NNW 05:08:15 70° WSW 05:13:26 10° S
Cosmos 292 Rocket 4.4 05:04:04 10° N 05:08:52 57° ENE 05:13:37 10° SSE
Delta 2 Rocket 3.4 05:11:07 45° NW 05:11:52 55° N 05:15:20 10° E
CZ-4B DEB 4.5 05:06:53 10° N 05:12:05 45° WNW 05:14:18 30° WSW
Cosmos 2061 Rocket 4.1 05:07:47 10° N 05:14:07 81° E 05:20:30 10° S
Okean 2 3.3 05:12:03 28° SSW 05:14:08 65° W 05:18:16 10° N
Cosmos 1726 Rocket 3.4 05:12:39 10° N 05:17:02 78° W 05:21:22 10° S
Meteor 1-31 Rocket 3.6 05:14:41 10° NNE 05:18:30 53° E 05:22:20 10° S
Meteor 1-15 Rocket 4.3 05:12:56 10° N 05:18:32 78° E 05:24:08 10° SSE
Cosmos 1802 Rocket 4.1 05:13:07 10° N 05:19:18 78° E 05:25:24 10° S
Cosmos 2100 Rocket 3.9 05:14:03 10° N 05:20:17 80° W 05:26:35 10° S
Cosmos 2298 Rocket 4.0 05:17:20 14° SSW 05:21:49 67° WNW 05:27:07 10° N
OAO 2 Rocket 4.0 05:18:54 23° SW 05:21:56 49° SSE 05:27:04 10° E
Cosmos 1892 Rocket 3.8 05:20:12 22° SW 05:22:47 48° W 05:27:08 10° N
Thor Agena Rocket 3.7 05:24:21 10° S 05:29:30 54° W 05:34:42 10° NNW
Feng Yun 1-1 Rocket 4.3 05:25:26 10° N 05:31:03 70° WNW 05:36:49 10° SSW
OPS 6432 4.3 05:30:47 21° SW 05:33:10 70° WNW 05:36:19 10° NNE
Cosmos 2333 Rocket 2.8 05:29:11 10° NW 05:34:08 31° WSW 05:39:02 10° SSW
PSLV R/B 4.2 05:31:44 10° N 05:35:40 35° WNW 05:38:36 16° SW
Cosmos 2150 Rocket 4.0 05:31:41 10° SSW 05:36:44 54° WNW 05:41:47 10° N
Cosmos 1515 4.0 05:37:06 10° S 05:40:54 71° E 05:44:43 10° N
CSL-04 DEB 4.5 05:42:33 10° N 05:46:57 78° WNW 05:51:15 10° SSW
Cosmos 1666 3.5 05:43:52 10° NNW 05:47:14 29° W 05:50:35 10° SSW
Cosmos 990 Rocket 3.9 05:43:42 10° SSW 05:48:56 78° WNW 05:54:13 10° NNE
Cosmos 2098 Rocket 3.1 05:45:30 10° N 05:49:31 77° W 05:54:41 10° S
OTV 4 0.1 05:49:23 19° WNW 05:51:11 81° SSW 05:53:53 10° ESE
Cosmos 2228 3.1 05:47:29 10° NNW 05:51:48 58° W 05:56:04 10° S
Ariane Rocket 3.5 05:48:11 10° NNE 05:53:16 64° ESE 05:58:19 10° S
Cosmos 972 Rocket 4.2 05:48:22 10° SSW 05:53:38 90° NNW 05:59:32 10° NNE
Hubble Space Telescope 2.5 05:52:14 12° WSW 05:54:32 18° SSW 05:57:26 10° SSE
Okean-O 3.6 05:53:09 10° NNW 05:56:50 26° WNW 06:00:31 10° SW
DELTA 2 R/B (1) 4.0 05:52:30 14° W 05:57:11 52° NNW 06:02:38 10° ENE
Cosmos 2016 Rocket 4.0 05:50:59 10° NNW 05:57:12 60° W 06:03:19 10° S
Cosmos 1340 3.7 05:54:55 10° S 05:58:35 51° E 06:02:16 10° NNE
Cosmos 2227 4.2 05:54:12 10° SSW 05:59:56 74° WNW 06:05:42 10° NNE
Cosmos 2237 Rocket 3.3 05:56:49 10° NW 06:01:01 22° W 06:05:11 10° SSW
Cosmos 2173 Rocket 4.4 05:57:27 10° NNW 06:02:56 36° W 06:08:28 10° SSW
Cosmos 2058 Rocket 4.0 06:01:46 10° NNW 06:05:24 26° W 06:09:02 10° SSW
Cosmos 2123 Rocket 4.1 06:02:51 10° SSW 06:08:52 54° W 06:14:54 10° N
ATLAS 5 CENTAUR R/B 3.2 06:05:52 10° NW 06:11:20 32° WSW 06:17:02 10° S
COSMO-SKYMED 1 2.6 06:10:22 10° SSE 06:14:42 89° WSW 06:19:04 10° NNW
MOS 1 Rocket 4.2 06:12:11 10° NNW 06:16:25 31° WNW 06:20:51 10° SW
Cosmos 1125 Rocket 3.9 06:11:46 10° S 06:16:55 71° ESE 06:22:06 10° NNE
Radarsat Rocket 4.2 06:13:04 10° N 06:19:37 60° WNW 06:25:30 10° SSW
SL-16 R/B 2.7 06:15:02 10° NW 06:20:13 38° WSW 06:25:23 10° S
